Regional Weather Roundup
Issued by NWS

Home | Current Version | Previous Version | Graphics & Text | Print | Product List | Glossary On
Versions: 1 2 3 4 5 6 7 8 9 10 11 12 13 14 15 16 17 18 19 20 21 22 23 24 25 26 27 28 29 30 31 32 33 34 35 36 37 38 39 40 41 42 43 44 45 46 47 48 49 50
844
ASUS43 KMKX 191710
RWRWI

WISCONSIN REGIONAL WEATHER ROUNDUP
NATIONAL WEATHER SERVICE MILWAUKEE/SULLIVAN WI
1100 AM CST MON FEB 19 2018

NOTE: "FAIR" INDICATES FEW OR NO CLOUDS BELOW 12,000 FEET WITH NO
SIGNIFICANT WEATHER AND/OR OBSTRUCTIONS TO VISIBILITY.

WIZ001-002-006>008-014>016-023>028-191800-
NORTHWEST WISCONSIN

CITY           SKY/WX    TMP DP  RH WIND       PRES   REMARKS
SUPERIOR ARPT  LGT SNOW  15  11  85 NE16      30.09F WCI  -1
ASHLAND        FOG       17  14  88 NE17      30.08R VSB 1/4 WCI   1
HAYWARD        SNOW      20  14  77 NE18G25   29.98F VSB 1/2 WCI   5
SIREN          LGT SNOW  21  15  78 NE10G22   29.97F WCI   9
CUMBERLAND     MIX PCPN  21  14  73 NE21      29.91F WCI   6
RICE LAKE      CLOUDY    22  18  85 N14       29.93F WCI   9
CHETEK         CLOUDY    23  19  85 NE7G17    29.92F WCI  15
LADYSMITH      CLOUDY    22  18  83 NE15      29.94S WCI   9
EAU CLAIRE     FRZ RAIN  24  21  88 NE16G24   29.87S FOG     WCI  11
MENOMONIE      MIX PCPN  25  21  85 NE13G20   29.89S WCI  14
NEW RICHMOND   CLOUDY    22  17  82 NE16G22   29.90S WCI   8
OSCEOLA        FLURRIES  22  17  81 NE15G21   29.96S WCI   9
$$

WIZ003>005-009-010-017-018-191800-
NORTH CENTRAL WISCONSIN

CITY           SKY/WX    TMP DP  RH WIND       PRES   REMARKS
MANITOWISH WTR LGT SNOW  17  15  93 NE10G16   29.96S WCI   4
ARBOR VITAE    LGT SNOW  21  17  84 NE8       29.94R WCI  11
WOODRUFF       LGT SNOW  21  17  84 NE8       29.94R WCI  11
RHINELANDER    CLOUDY    22  18  85 NE13G18   29.92F WCI  10
EAGLE RIVER    LGT SNOW  19  15  84 NE12      29.94S WCI   7
LAND O LAKES   LGT SNOW  19  17  93 NE8G17    29.97S VSB 1   WCI   8
PHILLIPS       FLURRIES  19  16  89 NE14G22   29.93S WCI   5
TOMAHAWK       CLOUDY    22  18  82 NE10      29.92S WCI  12
MEDFORD        MIX PCPN  23  19  85 NE15      29.87R WCI  10
MERRILL        CLOUDY    26  22  87 NE7       29.91R WCI  18
$$

WIZ029-030-035-036-043>047-191800-
CENTRAL WISCONSIN

CITY           SKY/WX    TMP DP  RH WIND       PRES   REMARKS
WAUSAU         CLOUDY    31  25  78 NE12G20   29.86R HAZE    WCI  22
MOSINEE        CLOUDY    28  28 100 NE10      29.88R FOG     WCI  19
MARSHFIELD     CLOUDY    31  27  85 NE15      29.83S FOG     WCI  20
STEVENS POINT  CLOUDY    30  28  92 NE10G16   29.87R WCI  21
WAUPACA        CLOUDY    37  30  76 NE6       29.88R WCI  32
WAUTOMA        CLOUDY    36  31  82 E9        29.86R WCI  29
WISC RAPIDS    CLOUDY    33  28  81 E14       29.85S WCI  23
CAMP DOUGLAS   PTSUNNY   38  32  76 NE5       29.82R WCI  35
$$

WIZ011>013-019>022-031-037>040-048>050-191800-
NORTHEAST WISCONSIN

CITY           SKY/WX    TMP DP  RH WIND       PRES   REMARKS
ANTIGO         CLOUDY    28  25  89 NE15      29.90R WCI  16
SHAWANO        CLOUDY    34  29  82 NE13      29.90S WCI  25
OCONTO         CLOUDY    33  29  86 N8        29.93R WCI  26
STURGEON BAY   PTSUNNY   33  29  85 N13       29.94R WCI  24
GREEN BAY      CLOUDY    34  29  82 NE20      29.92R HAZE    WCI  23
MANITOWOC      PTSUNNY   39  33  79 CALM      29.91R
APPLETON       PTSUNNY   37  28  70 NE9       29.87R WCI  31
CLINTONVILLE   CLOUDY    33  28  81 NE8       29.90R WCI  26
OSHKOSH        CLOUDY    37  31  78 NE9       29.88R WCI  30
$$

WIZ032>034-041-042-053>061-191800-
SOUTHWEST WISCONSIN

CITY           SKY/WX    TMP DP  RH WIND       PRES   REMARKS
LA CROSSE      CLOUDY    37  30  75 N8        29.80S WCI  31
SPARTA         CLOUDY    37  32  81 NE9       29.82R WCI  31
VIROQUA        CLOUDY    38  34  86 E9        29.77S WCI  31
BOSCOBEL       CLOUDY    38  34  85 VRB5      29.78F FOG     WCI  34
PRAIRIE DU CHI DRZL/FOG  35  34  94 CALM      29.76F VSB 1
PLATTEVILLE    CLOUDY    37  37 100 E10       29.75F VSB 1/2 WCI  29
$$

WIZ056-057-062-063-064-067-068-191800-
SOUTH CENTRAL WISCONSIN

CITY           SKY/WX    TMP DP  RH WIND       PRES   REMARKS
REEDSBURG      CLOUDY    37  32  83 E8        29.80F WCI  31
BARABOO/DELLS  CLOUDY    36  32  85 NE6       29.82S WCI  31
LONE ROCK      CLOUDY    38  35  89 NE8       29.79F FOG     WCI  32
MINERAL POINT  RAIN      37  37 100 E7        29.76F VSB 1/2 WCI  32
MADISON        LGT RAIN  38  36  92 NE7       29.83S FOG     WCI  33
MIDDLETON      CLOUDY    38  37  94 E6        29.81F WCI  34
WATERTOWN      CLOUDY    39  38  99 E5        29.83F
MONROE         DRZL/FOG  36  36 100 E7        29.77F VSB<1/4 WCI  30
JANESVILLE     DRZL/FOG  39  39 100 VRB5      29.80F VSB 1/2
$$

WIZ051-052-058>065-066-070>072-191800-
SOUTHEAST WISCONSIN

CITY           SKY/WX    TMP DP  RH WIND       PRES   REMARKS
MILWAUKEE      LGT RAIN  42  39  89 NE5       29.83F FOG
WAUKESHA       DRIZZLE   37  36  93 CALM      29.86R
MILWAUKEE/TIMM CLOUDY    39  36  87 CALM      29.86S
RACINE         LGT RAIN  40  39  97 CALM      29.85F VSB 1
BURLINGTON     MIX PCPN  39  38  95 E3        29.82F
KENOSHA        LGT RAIN  43  40  89 NE5       29.82F FOG
FOND DU LAC    CLOUDY    41  32  70 E6        29.87R
SHEBOYGAN      LGT RAIN  39  35  86 CALM      29.88R
WEST BEND      CLOUDY    39  36  87 E5        29.87S
JUNEAU         CLOUDY    38  36  92 NE3       29.86R
$$

LSZ147-162-191800-
LAKE SUPERIOR

STATION/POSITION TIME  TEMP    WIND        PRES    WAVE
                       AIR SEA DIR/SP/G            HT/PER
                 (UTC) (F)     (DEG/KT/KT) (MB)    (FT/S)
DEVILS ISLAND    1700   17      40/ 24/ 28 1021.0F
SAXON HARBOR     1630   19      50/ 17/ 24 1018.3R
$$

LMZ867-665-643>646-191800-
LAKE MICHIGAN

STATION/POSITION TIME  TEMP    WIND        PRES    WAVE
                       AIR SEA DIR/SP/G            HT/PER
                 (UTC) (F)     (DEG/KT/KT) (MB)    (FT/S)
NORTHPORT PIER   1640   30                 1014.2R
KEWAUNEE LAKESHO 1648   37      10/  4/  8 1012.1R
SHEBOYGAN LAKESH 1700   36     100/  4/  5 1012.2R
PORT WASHINGTON  1630   37      70/  1/  3 1012.9R
MILWAUKEE LAKESH 1620   35     140/  7/  7   N/A
KENOSHA   LAKESH 1700   36      CALM  /  1 1010.5
$$

TC  - TEMPERATURE IN CELSIUS
VSB - VISIBILITY IN STATUTE MILES
WCI - WIND CHILL INDEX
HX  - HEAT INDEX





USA.gov is the U.S. government's official web portal to all federal, state and local government web resources and services.